Simultaneous Nadir Overpasses (SNOs) Predictions

Prediction of SNOs near US between AQUA and NPP Satellite Orbit:

Table of predicted SNOs near US for the next 10.0 days since TLE Epoch: 11/10/2018
Index Date (AQUA) Time (AQUA) AQUA Lat,Lon Date (NPP) Time (NPP) NPP Lat,Lon Distance(km) Time Diff (sec)
1 11/11/2018 09:23:29 23.55,-113.41 11/11/2018 09:16:07 23.66,-113.89 50.11 442
2 11/14/2018 06:30:14 46.36, -65.03 11/14/2018 06:30:54 46.80, -67.08 163.88 40
3 11/14/2018 08:08:07 49.92, -88.34 11/14/2018 08:11:21 50.42, -90.91 191.21 194
4 11/14/2018 09:47:00 49.92,-113.06 11/14/2018 09:52:49 50.53,-116.23 235.64 349
5 11/16/2018 19:06:15 49.96, -92.52 11/16/2018 19:01:38 49.62, -94.43 142.33 277
6 11/16/2018 20:45:08 49.96,-117.24 11/16/2018 20:43:06 49.51,-119.76 187.68 122
7 11/19/2018 08:34:56 20.03,-101.86 11/19/2018 08:26:36 19.33,-102.29 89.63 500
8 11/19/2018 10:11:30 28.40,-124.55 11/19/2018 10:05:29 28.53,-125.32 76.53 361




NCC Satellite Simultaneous Nadir Overpasses (SNOs) Prediction Service
